Time,TemperatureF,DewpointF,PressureIn,WindDirection,WindDirectionDegrees,WindSpeedMPH,WindSpeedGustMPH,Humidity,HourlyPrecipIn,Conditions,Clouds,dailyrainin,SoftwareType,DateUTC
2013-03-27 00:00:00,34.0,29.4,30.33,SSW,203,4.0,4.0,83,0.00,,,0.00,Wunderground v.1.15,2013-03-27 04:00:00,
2013-03-27 00:02:00,34.0,29.4,30.33,SSW,194,4.0,4.0,83,0.00,,,0.00,Wunderground v.1.15,2013-03-27 04:02:00,
2013-03-27 00:04:00,33.9,29.3,30.33,SSW,210,4.0,4.0,83,0.00,,,0.00,Wunderground v.1.15,2013-03-27 04:04:00,
2013-03-27 00:10:00,33.9,29.3,30.33,South,190,4.0,4.0,83,0.00,,,0.00,Wunderground v.1.15,2013-03-27 04:10:00,
2013-03-27 00:16:00,34.0,29.4,30.33,South,189,4.0,7.0,83,0.00,,,0.00,Wunderground v.1.15,2013-03-27 04:16:00,
2013-03-27 00:20:00,34.0,29.4,30.33,SSW,211,5.0,5.0,83,0.00,,,0.00,Wunderground v.1.15,2013-03-27 04:20:00,
2013-03-27 00:26:00,33.9,29.3,30.33,South,188,4.0,5.0,83,0.00,,,0.00,Wunderground v.1.15,2013-03-27 04:26:00,
2013-03-27 00:32:00,33.9,29.3,30.33,South,183,4.0,4.0,83,0.00,,,0.00,Wunderground v.1.15,2013-03-27 04:32:00,
2013-03-27 00:38:00,33.7,29.1,30.33,SSW,200,4.0,5.0,83,0.00,,,0.00,Wunderground v.1.15,2013-03-27 04:38:00,
2013-03-27 00:44:00,33.6,29.0,30.33,SW,215,5.0,5.0,83,0.00,,,0.00,Wunderground v.1.15,2013-03-27 04:44:00,
2013-03-27 00:50:00,33.7,28.8,30.33,South,188,4.0,4.0,82,0.00,,,0.00,Wunderground v.1.15,2013-03-27 04:50:00,
2013-03-27 00:56:00,33.7,28.8,30.33,SSW,201,4.0,5.0,82,0.00,,,0.00,Wunderground v.1.15,2013-03-27 04:56:00,
2013-03-27 01:02:00,33.7,28.8,30.33,SSW,193,3.0,4.0,82,0.00,,,0.00,Wunderground v.1.15,2013-03-27 05:02:00,
2013-03-27 01:08:00,33.7,28.8,30.33,South,191,4.0,7.0,82,0.00,,,0.00,Wunderground v.1.15,2013-03-27 05:08:00,
2013-03-27 01:14:00,33.6,28.7,30.33,South,191,3.0,7.0,82,0.00,,,0.00,Wunderground v.1.15,2013-03-27 05:14:00,
2013-03-27 01:20:00,33.6,28.7,30.33,SSW,198,4.0,7.0,82,0.00,,,0.00,Wunderground v.1.15,2013-03-27 05:20:00,
2013-03-27 01:26:00,33.5,28.6,30.33,SSW,200,4.0,7.0,82,0.00,,,0.00,Wunderground v.1.15,2013-03-27 05:26:00,
2013-03-27 01:32:00,33.3,28.1,30.33,SW,215,4.0,7.0,81,0.00,,,0.00,Wunderground v.1.15,2013-03-27 05:32:00,
2013-03-27 01:38:00,33.4,28.2,30.33,South,181,4.0,7.0,81,0.00,,,0.00,Wunderground v.1.15,2013-03-27 05:38:00,
2013-03-27 01:44:00,33.2,28.0,30.33,South,191,3.0,7.0,81,0.00,,,0.00,Wunderground v.1.15,2013-03-27 05:44:00,
2013-03-27 01:50:00,33.2,28.0,30.33,SSW,193,3.0,7.0,81,0.00,,,0.00,Wunderground v.1.15,2013-03-27 05:50:00,
2013-03-27 01:56:00,33.0,28.1,30.33,SSW,211,3.0,7.0,82,0.00,,,0.00,Wunderground v.1.15,2013-03-27 05:56:00,
2013-03-27 02:02:00,33.1,27.9,30.33,SSW,210,4.0,7.0,81,0.00,,,0.00,Wunderground v.1.15,2013-03-27 06:02:00,
2013-03-27 02:08:00,33.3,28.1,30.33,SSW,208,4.0,7.0,81,0.00,,,0.00,Wunderground v.1.15,2013-03-27 06:08:00,
2013-03-27 02:14:00,33.2,28.0,30.33,SSW,204,3.0,7.0,81,0.00,,,0.00,Wunderground v.1.15,2013-03-27 06:14:00,
2013-03-27 02:20:00,33.4,27.9,30.33,SSW,198,3.0,7.0,80,0.00,,,0.00,Wunderground v.1.15,2013-03-27 06:20:00,
2013-03-27 02:26:00,33.4,27.9,30.33,South,190,3.0,7.0,80,0.00,,,0.00,Wunderground v.1.15,2013-03-27 06:26:00,
2013-03-27 02:32:00,33.6,28.1,30.33,SSW,198,2.0,7.0,80,0.00,,,0.00,Wunderground v.1.15,2013-03-27 06:32:00,
2013-03-27 02:38:00,33.7,28.2,30.33,South,191,2.0,7.0,80,0.00,,,0.00,Wunderground v.1.15,2013-03-27 06:38:00,
2013-03-27 02:44:00,33.7,28.2,30.33,South,188,2.0,7.0,80,0.00,,,0.00,Wunderground v.1.15,2013-03-27 06:44:00,
2013-03-27 02:50:00,33.6,28.1,30.33,SW,215,2.0,2.0,80,0.00,,,0.00,Wunderground v.1.15,2013-03-27 06:50:00,
2013-03-27 02:56:00,33.6,28.4,30.33,South,186,2.0,7.0,81,0.00,,,0.00,Wunderground v.1.15,2013-03-27 06:56:00,
2013-03-27 03:02:00,33.7,28.5,30.32,South,176,2.0,7.0,81,0.00,,,0.00,Wunderground v.1.15,2013-03-27 07:02:00,
2013-03-27 03:08:00,33.3,28.4,30.32,SSE,165,2.0,7.0,82,0.00,,,0.00,Wunderground v.1.15,2013-03-27 07:08:00,
2013-03-27 03:14:00,33.1,28.2,30.32,South,181,2.0,7.0,82,0.00,,,0.00,Wunderground v.1.15,2013-03-27 07:14:00,
2013-03-27 03:20:00,33.1,28.2,30.32,South,190,2.0,7.0,82,0.00,,,0.00,Wunderground v.1.15,2013-03-27 07:20:00,
2013-03-27 03:26:00,33.1,28.5,30.32,South,179,2.0,7.0,83,0.00,,,0.00,Wunderground v.1.15,2013-03-27 07:26:00,
2013-03-27 03:32:00,33.2,28.6,30.32,SSW,193,2.0,7.0,83,0.00,,,0.00,Wunderground v.1.15,2013-03-27 07:32:00,
2013-03-27 03:38:00,33.3,28.7,30.32,SSW,204,2.0,7.0,83,0.00,,,0.00,Wunderground v.1.15,2013-03-27 07:38:00,
2013-03-27 03:44:00,33.4,28.8,30.31,SSW,198,3.0,7.0,83,0.00,,,0.00,Wunderground v.1.15,2013-03-27 07:44:00,
2013-03-27 03:50:00,33.5,28.9,30.32,South,181,3.0,3.0,83,0.00,,,0.00,Wunderground v.1.15,2013-03-27 07:50:00,
2013-03-27 03:58:00,33.5,28.9,30.31,SSW,194,3.0,7.0,83,0.00,,,0.00,Wunderground v.1.15,2013-03-27 07:58:00,
2013-03-27 04:04:00,33.4,29.1,30.31,SSE,163,3.0,7.0,84,0.00,,,0.00,Wunderground v.1.15,2013-03-27 08:04:00,
2013-03-27 04:10:00,33.3,29.0,30.32,South,173,2.0,7.0,84,0.00,,,0.00,Wunderground v.1.15,2013-03-27 08:10:00,
2013-03-27 04:18:00,33.3,29.0,30.32,South,176,3.0,7.0,84,0.00,,,0.00,Wunderground v.1.15,2013-03-27 08:18:00,
2013-03-27 04:24:00,33.4,29.1,30.32,South,188,3.0,7.0,84,0.00,,,0.00,Wunderground v.1.15,2013-03-27 08:24:00,
2013-03-27 04:30:00,33.4,29.1,30.32,SSW,210,3.0,7.0,84,0.00,,,0.00,Wunderground v.1.15,2013-03-27 08:30:00,
2013-03-27 04:36:00,33.4,29.1,30.33,SSE,165,3.0,7.0,84,0.00,,,0.00,Wunderground v.1.15,2013-03-27 08:36:00,
2013-03-27 04:44:00,33.5,28.9,30.32,South,187,4.0,7.0,83,0.00,,,0.00,Wunderground v.1.15,2013-03-27 08:44:00,
2013-03-27 04:50:00,33.5,28.9,30.31,SSW,195,3.0,7.0,83,0.00,,,0.00,Wunderground v.1.15,2013-03-27 08:50:00,
2013-03-27 04:58:00,33.5,28.6,30.32,SSW,207,3.0,7.0,82,0.00,,,0.00,Wunderground v.1.15,2013-03-27 08:58:00,
2013-03-27 05:04:00,33.4,28.8,30.32,SSW,200,3.0,7.0,83,0.00,,,0.00,Wunderground v.1.15,2013-03-27 09:04:00,
2013-03-27 05:10:00,33.4,28.2,30.32,SSW,200,3.0,3.0,81,0.00,,,0.00,Wunderground v.1.15,2013-03-27 09:10:00,
2013-03-27 05:18:00,33.6,27.5,30.32,SSW,205,3.0,7.0,78,0.00,,,0.00,Wunderground v.1.15,2013-03-27 09:18:00,
2013-03-27 05:24:00,33.8,27.4,30.33,SSW,198,4.0,7.0,77,0.00,,,0.00,Wunderground v.1.15,2013-03-27 09:24:00,
2013-03-27 05:30:00,33.9,27.4,30.33,SSW,205,4.0,7.0,77,0.00,,,0.00,Wunderground v.1.15,2013-03-27 09:30:00,
2013-03-27 05:38:00,33.9,27.4,30.33,SSW,211,3.0,7.0,77,0.00,,,0.00,Wunderground v.1.15,2013-03-27 09:38:00,
2013-03-27 05:44:00,33.9,27.4,30.33,SSW,203,3.0,7.0,77,0.00,,,0.00,Wunderground v.1.15,2013-03-27 09:44:00,
2013-03-27 05:50:00,33.8,27.4,30.33,SSW,193,2.0,7.0,77,0.00,,,0.00,Wunderground v.1.15,2013-03-27 09:50:00,
2013-03-27 05:56:00,33.8,27.4,30.33,SSW,195,2.0,7.0,77,0.00,,,0.00,Wunderground v.1.15,2013-03-27 09:56:00,
2013-03-27 06:02:00,33.7,27.6,30.33,South,182,1.0,7.0,78,0.00,,,0.00,Wunderground v.1.15,2013-03-27 10:02:00,
2013-03-27 06:08:00,33.6,27.8,30.33,South,190,1.0,7.0,79,0.00,,,0.00,Wunderground v.1.15,2013-03-27 10:08:00,
2013-03-27 06:14:00,33.6,27.8,30.34,SSW,205,1.0,7.0,79,0.00,,,0.00,Wunderground v.1.15,2013-03-27 10:14:00,
2013-03-27 06:20:00,33.6,27.8,30.34,SSW,200,2.0,2.0,79,0.00,,,0.00,Wunderground v.1.15,2013-03-27 10:20:00,
2013-03-27 06:26:00,33.6,28.1,30.34,South,191,2.0,7.0,80,0.00,,,0.00,Wunderground v.1.15,2013-03-27 10:26:00,
2013-03-27 06:32:00,33.5,28.0,30.34,South,191,2.0,7.0,80,0.00,,,0.00,Wunderground v.1.15,2013-03-27 10:32:00,
2013-03-27 06:38:00,33.6,28.1,30.34,SSW,192,2.0,7.0,80,0.00,,,0.00,Wunderground v.1.15,2013-03-27 10:38:00,
2013-03-27 06:44:00,33.5,28.0,30.34,SSW,210,2.0,7.0,80,0.00,,,0.00,Wunderground v.1.15,2013-03-27 10:44:00,
2013-03-27 06:50:00,33.5,28.0,30.34,SSW,204,2.0,2.0,80,0.00,,,0.00,Wunderground v.1.15,2013-03-27 10:50:00,
2013-03-27 06:56:00,33.5,28.3,30.34,SSW,205,2.0,7.0,81,0.00,,,0.00,Wunderground v.1.15,2013-03-27 10:56:00,
2013-03-27 07:02:00,33.5,28.3,30.35,SSW,200,2.0,7.0,81,0.00,,,0.00,Wunderground v.1.15,2013-03-27 11:02:00,
2013-03-27 07:08:00,33.5,28.3,30.35,SSW,204,1.0,7.0,81,0.00,,,0.00,Wunderground v.1.15,2013-03-27 11:08:00,
2013-03-27 07:14:00,33.5,28.3,30.35,SSW,201,2.0,7.0,81,0.00,,,0.00,Wunderground v.1.15,2013-03-27 11:14:00,
2013-03-27 07:20:00,33.4,28.2,30.36,SSW,195,1.0,7.0,81,0.00,,,0.00,Wunderground v.1.15,2013-03-27 11:20:00,
2013-03-27 07:26:00,33.5,28.0,30.35,SSW,211,1.0,7.0,80,0.00,,,0.00,Wunderground v.1.15,2013-03-27 11:26:00,
2013-03-27 07:34:00,33.5,28.0,30.36,SSW,195,2.0,7.0,80,0.00,,,0.00,Wunderground v.1.15,2013-03-27 11:34:00,
2013-03-27 07:40:00,33.6,27.8,30.36,SSW,196,2.0,7.0,79,0.00,,,0.00,Wunderground v.1.15,2013-03-27 11:40:00,
2013-03-27 07:48:00,33.6,27.8,30.36,South,186,2.0,7.0,79,0.00,,,0.00,Wunderground v.1.15,2013-03-27 11:48:00,
2013-03-27 07:54:00,33.6,27.5,30.36,SSW,200,2.0,7.0,78,0.00,,,0.00,Wunderground v.1.15,2013-03-27 11:54:00,
2013-03-27 08:00:00,33.7,27.6,30.36,SSW,213,2.0,7.0,78,0.00,,,0.00,Wunderground v.1.15,2013-03-27 12:00:00,
2013-03-27 08:06:00,33.8,27.7,30.36,SW,219,2.0,7.0,78,0.00,,,0.00,Wunderground v.1.15,2013-03-27 12:06:00,
2013-03-27 08:12:00,33.8,27.4,30.36,SSW,204,1.0,7.0,77,0.00,,,0.00,Wunderground v.1.15,2013-03-27 12:12:00,
2013-03-27 08:18:00,33.9,27.4,30.37,SW,218,2.0,7.0,77,0.00,,,0.00,Wunderground v.1.15,2013-03-27 12:18:00,
2013-03-27 08:24:00,34.0,27.5,30.37,SSW,201,2.0,7.0,77,0.00,,,0.00,Wunderground v.1.15,2013-03-27 12:24:00,
2013-03-27 08:30:00,34.0,27.5,30.37,SSW,204,1.0,7.0,77,0.00,,,0.00,Wunderground v.1.15,2013-03-27 12:30:00,
2013-03-27 08:36:00,34.1,27.6,30.37,SW,214,1.0,7.0,77,0.00,,,0.00,Wunderground v.1.15,2013-03-27 12:36:00,
2013-03-27 08:42:00,34.3,28.2,30.37,SSW,211,1.0,7.0,78,0.00,,,0.00,Wunderground v.1.15,2013-03-27 12:42:00,
2013-03-27 08:48:00,34.4,27.9,30.38,SSW,203,1.0,7.0,77,0.00,,,0.00,Wunderground v.1.15,2013-03-27 12:48:00,
2013-03-27 08:54:00,34.5,27.1,30.38,SSW,210,2.0,7.0,74,0.00,,,0.00,Wunderground v.1.15,2013-03-27 12:54:00,
2013-03-27 09:00:00,34.5,26.7,30.38,SSW,200,3.0,3.0,73,0.00,,,0.00,Wunderground v.1.15,2013-03-27 13:00:00,
2013-03-27 09:08:00,34.7,26.9,30.38,SW,217,4.0,9.0,73,0.00,,,0.00,Wunderground v.1.15,2013-03-27 13:08:00,
2013-03-27 09:14:00,34.7,26.9,30.39,SSW,204,3.0,7.0,73,0.00,,,0.00,Wunderground v.1.15,2013-03-27 13:14:00,
2013-03-27 09:20:00,34.7,26.9,30.39,SSW,205,5.0,7.0,73,0.00,,,0.00,Wunderground v.1.15,2013-03-27 13:20:00,
2013-03-27 09:26:00,34.7,27.3,30.39,SSW,207,5.0,7.0,74,0.00,,,0.00,Wunderground v.1.15,2013-03-27 13:26:00,
2013-03-27 09:32:00,34.8,27.4,30.39,South,184,3.0,7.0,74,0.00,,,0.00,Wunderground v.1.15,2013-03-27 13:32:00,
2013-03-27 09:38:00,34.8,27.0,30.39,SSW,204,3.0,7.0,73,0.00,,,0.00,Wunderground v.1.15,2013-03-27 13:38:00,
2013-03-27 09:44:00,34.8,27.7,30.39,SSW,208,3.0,7.0,75,0.00,,,0.00,Wunderground v.1.15,2013-03-27 13:44:00,
2013-03-27 09:50:00,34.7,28.2,30.39,SSW,195,2.0,7.0,77,0.00,,,0.00,Wunderground v.1.15,2013-03-27 13:50:00,
2013-03-27 09:56:00,34.5,27.4,30.39,South,186,4.0,7.0,75,0.00,,,0.00,Wunderground v.1.15,2013-03-27 13:56:00,
2013-03-27 10:02:00,34.5,27.7,30.39,South,191,4.0,7.0,76,0.00,,,0.00,Wunderground v.1.15,2013-03-27 14:02:00,
2013-03-27 10:08:00,34.6,28.1,30.39,SSW,201,3.0,7.0,77,0.00,,,0.00,Wunderground v.1.15,2013-03-27 14:08:00,
2013-03-27 10:14:00,34.9,28.1,30.39,SW,232,2.0,7.0,76,0.00,,,0.00,Wunderground v.1.15,2013-03-27 14:14:00,
2013-03-27 10:20:00,35.0,27.5,30.38,SW,231,4.0,7.0,74,0.00,,,0.00,Wunderground v.1.15,2013-03-27 14:20:00,
2013-03-27 10:28:00,34.8,27.0,30.39,SW,218,6.0,9.0,73,0.00,,,0.00,Wunderground v.1.15,2013-03-27 14:28:00,
2013-03-27 10:34:00,34.7,27.3,30.39,SE,124,6.0,7.0,74,0.00,,,0.00,Wunderground v.1.15,2013-03-27 14:34:00,
2013-03-27 10:40:00,34.7,27.3,30.39,WSW,248,5.0,5.0,74,0.00,,,0.00,Wunderground v.1.15,2013-03-27 14:40:00,
2013-03-27 10:48:00,34.8,28.0,30.39,SW,215,3.0,7.0,76,0.00,,,0.00,Wunderground v.1.15,2013-03-27 14:48:00,
2013-03-27 10:54:00,35.0,27.5,30.39,West,277,2.0,7.0,74,0.00,,,0.00,Wunderground v.1.15,2013-03-27 14:54:00,
2013-03-27 11:00:00,35.2,27.1,30.39,West,273,2.0,7.0,72,0.00,,,0.00,Wunderground v.1.15,2013-03-27 15:00:00,
2013-03-27 11:08:00,35.9,27.1,30.39,NW,311,4.0,7.0,70,0.00,,,0.00,Wunderground v.1.15,2013-03-27 15:08:00,
2013-03-27 11:14:00,36.3,26.4,30.39,WSW,238,4.0,7.0,67,0.00,,,0.00,Wunderground v.1.15,2013-03-27 15:14:00,
2013-03-27 11:20:00,36.4,25.7,30.39,SSW,211,3.0,3.0,65,0.00,,,0.00,Wunderground v.1.15,2013-03-27 15:20:00,
2013-03-27 11:26:00,36.7,26.8,30.39,WNW,298,3.0,7.0,67,0.00,,,0.00,Wunderground v.1.15,2013-03-27 15:26:00,
2013-03-27 11:32:00,36.9,26.2,30.39,WSW,253,4.0,4.0,65,0.00,,,0.00,Wunderground v.1.15,2013-03-27 15:32:00,
2013-03-27 11:38:00,36.9,25.1,30.39,SW,219,4.0,7.0,62,0.00,,,0.00,Wunderground v.1.15,2013-03-27 15:38:00,
2013-03-27 11:44:00,36.6,25.2,30.39,SSW,204,6.0,8.0,63,0.00,,,0.00,Wunderground v.1.15,2013-03-27 15:44:00,
2013-03-27 11:50:00,36.5,25.1,30.39,WSW,238,6.0,7.0,63,0.00,,,0.00,Wunderground v.1.15,2013-03-27 15:50:00,
2013-03-27 11:56:00,36.6,25.6,30.40,WSW,238,6.0,8.0,64,0.00,,,0.00,Wunderground v.1.15,2013-03-27 15:56:00,
2013-03-27 12:02:00,36.5,25.8,30.40,SW,217,6.0,7.0,65,0.00,,,0.00,Wunderground v.1.15,2013-03-27 16:02:00,
2013-03-27 12:08:00,36.6,26.7,30.40,SSW,213,5.0,8.0,67,0.00,,,0.00,Wunderground v.1.15,2013-03-27 16:08:00,
2013-03-27 12:14:00,36.5,24.3,30.40,SW,228,6.0,7.0,61,0.00,,,0.00,Wunderground v.1.15,2013-03-27 16:14:00,
2013-03-27 12:20:00,36.8,23.8,30.40,SSW,210,4.0,8.0,59,0.00,,,0.00,Wunderground v.1.15,2013-03-27 16:20:00,
2013-03-27 12:28:00,37.4,24.8,30.39,South,191,4.0,8.0,60,0.00,,,0.00,Wunderground v.1.15,2013-03-27 16:28:00,
2013-03-27 12:34:00,38.0,25.3,30.39,West,276,4.0,8.0,60,0.00,,,0.00,Wunderground v.1.15,2013-03-27 16:34:00,
2013-03-27 12:40:00,38.3,25.6,30.39,NW,321,5.0,5.0,60,0.00,,,0.00,Wunderground v.1.15,2013-03-27 16:40:00,
2013-03-27 12:46:00,38.5,25.0,30.39,West,274,4.0,7.0,58,0.00,,,0.00,Wunderground v.1.15,2013-03-27 16:46:00,
2013-03-27 12:54:00,38.7,25.6,30.40,WSW,243,3.0,7.0,59,0.00,,,0.00,Wunderground v.1.15,2013-03-27 16:54:00,
2013-03-27 13:00:00,38.7,26.4,30.39,SSW,211,2.0,2.0,61,0.00,,,0.00,Wunderground v.1.15,2013-03-27 17:00:00,
2013-03-27 13:08:00,38.7,25.2,30.39,SW,224,4.0,7.0,58,0.00,,,0.00,Wunderground v.1.15,2013-03-27 17:08:00,
2013-03-27 13:14:00,38.8,26.5,30.39,South,186,5.0,7.0,61,0.00,,,0.00,Wunderground v.1.15,2013-03-27 17:14:00,
2013-03-27 13:20:00,38.7,25.2,30.39,SSW,198,4.0,7.0,58,0.00,,,0.00,Wunderground v.1.15,2013-03-27 17:20:00,
2013-03-27 13:28:00,39.1,24.7,30.39,NW,304,5.0,7.0,56,0.00,,,0.00,Wunderground v.1.15,2013-03-27 17:28:00,
2013-03-27 13:36:00,39.7,25.7,30.39,NW,307,4.0,7.0,57,0.00,,,0.00,Wunderground v.1.15,2013-03-27 17:36:00,
2013-03-27 13:42:00,39.5,24.7,30.38,SSW,203,5.0,7.0,55,0.00,,,0.00,Wunderground v.1.15,2013-03-27 17:42:00,
2013-03-27 13:48:00,39.7,25.7,30.38,SW,214,4.0,7.0,57,0.00,,,0.00,Wunderground v.1.15,2013-03-27 17:48:00,
2013-03-27 13:54:00,40.3,24.5,30.38,WNW,285,4.0,11.0,53,0.00,,,0.00,Wunderground v.1.15,2013-03-27 17:54:00,
2013-03-27 14:00:00,40.2,25.3,30.38,WNW,293,7.0,10.0,55,0.00,,,0.00,Wunderground v.1.15,2013-03-27 18:00:00,
2013-03-27 14:06:00,40.3,25.0,30.38,NW,305,7.0,10.0,54,0.00,,,0.00,Wunderground v.1.15,2013-03-27 18:06:00,
2013-03-27 14:12:00,40.6,24.8,30.38,West,263,6.0,7.0,53,0.00,,,0.00,Wunderground v.1.15,2013-03-27 18:12:00,
2013-03-27 14:18:00,40.9,25.1,30.38,SW,218,5.0,10.0,53,0.00,,,0.00,Wunderground v.1.15,2013-03-27 18:18:00,
2013-03-27 14:24:00,40.9,24.1,30.37,SW,225,4.0,7.0,51,0.00,,,0.00,Wunderground v.1.15,2013-03-27 18:24:00,
2013-03-27 14:30:00,41.8,25.9,30.37,SW,226,3.0,9.0,53,0.00,,,0.00,Wunderground v.1.15,2013-03-27 18:30:00,
2013-03-27 14:38:00,42.2,26.3,30.36,SSW,212,7.0,9.0,53,0.00,,,0.00,Wunderground v.1.15,2013-03-27 18:38:00,
2013-03-27 14:44:00,41.8,25.0,30.36,WSW,253,7.0,12.0,51,0.00,,,0.00,Wunderground v.1.15,2013-03-27 18:44:00,
2013-03-27 14:50:00,42.0,25.2,30.36,SW,214,6.0,7.0,51,0.00,,,0.00,Wunderground v.1.15,2013-03-27 18:50:00,
2013-03-27 14:56:00,42.1,25.7,30.36,West,276,5.0,7.0,52,0.00,,,0.00,Wunderground v.1.15,2013-03-27 18:56:00,
2013-03-27 15:02:00,42.7,26.3,30.36,SSW,208,4.0,7.0,52,0.00,,,0.00,Wunderground v.1.15,2013-03-27 19:02:00,
2013-03-27 15:08:00,42.2,25.3,30.36,SW,233,7.0,10.0,51,0.00,,,0.00,Wunderground v.1.15,2013-03-27 19:08:00,
2013-03-27 15:14:00,41.9,24.1,30.35,NNE,29,5.0,7.0,49,0.00,,,0.00,Wunderground v.1.15,2013-03-27 19:14:00,
2013-03-27 15:20:00,43.0,27.0,30.34,North,359,1.0,1.0,53,0.00,,,0.00,Wunderground v.1.15,2013-03-27 19:20:00,
2013-03-27 15:26:00,43.9,26.9,30.34,WNW,289,2.0,7.0,51,0.00,,,0.00,Wunderground v.1.15,2013-03-27 19:26:00,
2013-03-27 15:32:00,43.1,26.2,30.34,SSW,211,4.0,8.0,51,0.00,,,0.00,Wunderground v.1.15,2013-03-27 19:32:00,
2013-03-27 15:38:00,42.9,26.9,30.34,SSE,156,4.0,8.0,53,0.00,,,0.00,Wunderground v.1.15,2013-03-27 19:38:00,
2013-03-27 15:44:00,42.9,25.5,30.34,South,187,3.0,8.0,50,0.00,,,0.00,Wunderground v.1.15,2013-03-27 19:44:00,
2013-03-27 15:50:00,43.1,26.2,30.33,SW,219,4.0,7.0,51,0.00,,,0.00,Wunderground v.1.15,2013-03-27 19:50:00,
2013-03-27 15:56:00,42.9,26.5,30.33,SSW,205,6.0,10.0,52,0.00,,,0.00,Wunderground v.1.15,2013-03-27 19:56:00,
2013-03-27 16:02:00,43.2,26.7,30.33,WNW,299,4.0,7.0,52,0.00,,,0.00,Wunderground v.1.15,2013-03-27 20:02:00,
2013-03-27 16:08:00,43.3,24.4,30.33,West,281,4.0,8.0,47,0.00,,,0.00,Wunderground v.1.15,2013-03-27 20:08:00,
2013-03-27 16:14:00,43.8,26.3,30.33,SW,222,4.0,9.0,50,0.00,,,0.00,Wunderground v.1.15,2013-03-27 20:14:00,
2013-03-27 16:20:00,43.7,25.3,30.33,SW,219,6.0,9.0,48,0.00,,,0.00,Wunderground v.1.15,2013-03-27 20:20:00,
2013-03-27 16:28:00,43.6,24.7,30.33,WSW,249,6.0,9.0,47,0.00,,,0.00,Wunderground v.1.15,2013-03-27 20:28:00,
2013-03-27 16:34:00,43.9,26.0,30.33,SSW,208,6.0,9.0,49,0.00,,,0.00,Wunderground v.1.15,2013-03-27 20:34:00,
2013-03-27 16:40:00,43.4,24.5,30.33,SSW,207,7.0,7.0,47,0.00,,,0.00,Wunderground v.1.15,2013-03-27 20:40:00,
2013-03-27 16:48:00,43.7,25.3,30.32,NW,312,6.0,10.0,48,0.00,,,0.00,Wunderground v.1.15,2013-03-27 20:48:00,
2013-03-27 16:54:00,44.3,26.8,30.33,WNW,301,7.0,12.0,50,0.00,,,0.00,Wunderground v.1.15,2013-03-27 20:54:00,
2013-03-27 17:00:00,44.3,25.3,30.33,West,259,7.0,7.0,47,0.00,,,0.00,Wunderground v.1.15,2013-03-27 21:00:00,
2013-03-27 17:06:00,44.9,26.4,30.33,WSW,245,7.0,7.0,48,0.00,,,0.00,Wunderground v.1.15,2013-03-27 21:06:00,
2013-03-27 17:12:00,44.7,25.2,30.33,NW,311,6.0,9.0,46,0.00,,,0.00,Wunderground v.1.15,2013-03-27 21:12:00,
2013-03-27 17:18:00,44.8,25.8,30.33,WSW,252,8.0,9.0,47,0.00,,,0.00,Wunderground v.1.15,2013-03-27 21:18:00,
2013-03-27 17:24:00,45.1,26.1,30.33,NW,307,7.0,8.0,47,0.00,,,0.00,Wunderground v.1.15,2013-03-27 21:24:00,
2013-03-27 17:30:00,44.8,24.7,30.33,WNW,297,7.0,7.0,45,0.00,,,0.00,Wunderground v.1.15,2013-03-27 21:30:00,
2013-03-27 17:36:00,44.6,25.6,30.33,SW,218,6.0,11.0,47,0.00,,,0.00,Wunderground v.1.15,2013-03-27 21:36:00,
2013-03-27 17:42:00,44.9,25.9,30.34,WSW,253,5.0,7.0,47,0.00,,,0.00,Wunderground v.1.15,2013-03-27 21:42:00,
2013-03-27 17:48:00,44.7,25.2,30.33,WNW,283,6.0,10.0,46,0.00,,,0.00,Wunderground v.1.15,2013-03-27 21:48:00,
2013-03-27 17:54:00,44.0,25.0,30.34,West,276,10.0,13.0,47,0.00,,,0.00,Wunderground v.1.15,2013-03-27 21:54:00,
2013-03-27 18:00:00,44.3,25.3,30.34,West,267,6.0,6.0,47,0.00,,,0.00,Wunderground v.1.15,2013-03-27 22:00:00,
2013-03-27 18:06:00,44.3,25.3,30.34,West,278,6.0,8.0,47,0.00,,,0.00,Wunderground v.1.15,2013-03-27 22:06:00,
2013-03-27 18:12:00,44.1,25.1,30.34,WNW,293,9.0,11.0,47,0.00,,,0.00,Wunderground v.1.15,2013-03-27 22:12:00,
2013-03-27 18:18:00,44.1,25.6,30.34,NW,309,9.0,11.0,48,0.00,,,0.00,Wunderground v.1.15,2013-03-27 22:18:00,
2013-03-27 18:24:00,44.1,25.1,30.34,NW,309,8.0,10.0,47,0.00,,,0.00,Wunderground v.1.15,2013-03-27 22:24:00,
2013-03-27 18:30:00,43.8,25.4,30.34,West,281,8.0,9.0,48,0.00,,,0.00,Wunderground v.1.15,2013-03-27 22:30:00,
2013-03-27 18:38:00,43.9,24.9,30.33,NW,306,7.0,9.0,47,0.00,,,0.00,Wunderground v.1.15,2013-03-27 22:38:00,
2013-03-27 18:44:00,43.6,25.2,30.33,NW,308,7.0,10.0,48,0.00,,,0.00,Wunderground v.1.15,2013-03-27 22:44:00,
2013-03-27 18:50:00,43.3,25.9,30.33,NW,325,7.0,10.0,50,0.00,,,0.00,Wunderground v.1.15,2013-03-27 22:50:00,
2013-03-27 18:56:00,42.8,24.9,30.33,NW,309,7.0,10.0,49,0.00,,,0.00,Wunderground v.1.15,2013-03-27 22:56:00,
2013-03-27 19:02:00,42.5,25.6,30.33,NW,310,7.0,10.0,51,0.00,,,0.00,Wunderground v.1.15,2013-03-27 23:02:00,
2013-03-27 19:08:00,42.4,25.1,30.33,NW,311,7.0,10.0,50,0.00,,,0.00,Wunderground v.1.15,2013-03-27 23:08:00,
2013-03-27 19:14:00,42.3,25.4,30.33,WNW,297,6.0,7.0,51,0.00,,,0.00,Wunderground v.1.15,2013-03-27 23:14:00,
2013-03-27 19:20:00,42.2,25.8,30.33,West,271,6.0,7.0,52,0.00,,,0.00,Wunderground v.1.15,2013-03-27 23:20:00,
2013-03-27 19:28:00,41.7,25.4,30.33,NW,304,7.0,10.0,52,0.00,,,0.00,Wunderground v.1.15,2013-03-27 23:28:00,
2013-03-27 19:34:00,41.4,25.1,30.33,West,281,7.0,7.0,52,0.00,,,0.00,Wunderground v.1.15,2013-03-27 23:34:00,
2013-03-27 19:40:00,41.0,24.7,30.33,NW,309,7.0,7.0,52,0.00,,,0.00,Wunderground v.1.15,2013-03-27 23:40:00,
2013-03-27 19:48:00,40.4,25.1,30.33,NNW,342,6.0,7.0,54,0.00,,,0.00,Wunderground v.1.15,2013-03-27 23:48:00,
2013-03-27 19:54:00,40.0,25.1,30.33,NW,312,4.0,7.0,55,0.00,,,0.00,Wunderground v.1.15,2013-03-27 23:54:00,
2013-03-27 20:00:00,39.7,25.3,30.33,NW,319,4.0,4.0,56,0.00,,,0.00,Wunderground v.1.15,2013-03-28 00:00:00,
2013-03-27 20:06:00,39.5,25.1,30.33,WNW,289,3.0,7.0,56,0.00,,,0.00,Wunderground v.1.15,2013-03-28 00:06:00,
2013-03-27 20:12:00,39.2,25.2,30.33,WNW,300,3.0,7.0,57,0.00,,,0.00,Wunderground v.1.15,2013-03-28 00:12:00,
2013-03-27 20:18:00,38.9,24.9,30.33,WNW,288,2.0,7.0,57,0.00,,,0.00,Wunderground v.1.15,2013-03-28 00:18:00,
2013-03-27 20:24:00,38.7,25.2,30.33,West,273,2.0,7.0,58,0.00,,,0.00,Wunderground v.1.15,2013-03-28 00:24:00,
2013-03-27 20:30:00,38.5,24.6,30.33,NW,311,3.0,3.0,57,0.00,,,0.00,Wunderground v.1.15,2013-03-28 00:30:00,
2013-03-27 20:36:00,38.3,24.8,30.34,NW,316,2.0,7.0,58,0.00,,,0.00,Wunderground v.1.15,2013-03-28 00:36:00,
2013-03-27 20:42:00,37.9,25.2,30.34,NW,316,0.0,7.0,60,0.00,,,0.00,Wunderground v.1.15,2013-03-28 00:42:00,
2013-03-27 20:48:00,37.7,24.6,30.34,North,350,0.0,7.0,59,0.00,,,0.00,Wunderground v.1.15,2013-03-28 00:48:00,
2013-03-27 20:54:00,37.5,25.3,30.34,North,350,0.0,7.0,61,0.00,,,0.00,Wunderground v.1.15,2013-03-28 00:54:00,
2013-03-27 21:00:00,37.2,25.4,30.34,North,349,0.0,7.0,62,0.00,,,0.00,Wunderground v.1.15,2013-03-28 01:00:00,
2013-03-27 21:08:00,37.1,25.3,30.35,North,350,0.0,7.0,62,0.00,,,0.00,Wunderground v.1.15,2013-03-28 01:08:00,
2013-03-27 21:14:00,36.8,25.8,30.35,North,350,0.0,7.0,64,0.00,,,0.00,Wunderground v.1.15,2013-03-28 01:14:00,
2013-03-27 21:20:00,36.0,25.7,30.35,North,350,0.0,7.0,66,0.00,,,0.00,Wunderground v.1.15,2013-03-28 01:20:00,
2013-03-27 21:28:00,34.9,24.7,30.34,North,350,0.0,7.0,66,0.00,,,0.00,Wunderground v.1.15,2013-03-28 01:28:00,
2013-03-27 21:34:00,34.8,25.3,30.35,North,349,0.0,7.0,68,0.00,,,0.00,Wunderground v.1.15,2013-03-28 01:34:00,
2013-03-27 21:40:00,35.1,25.6,30.35,WSW,249,0.0,7.0,68,0.00,,,0.00,Wunderground v.1.15,2013-03-28 01:40:00,
2013-03-27 21:46:00,35.0,25.1,30.35,SW,233,1.0,7.0,67,0.00,,,0.00,Wunderground v.1.15,2013-03-28 01:46:00,
2013-03-27 21:52:00,35.1,24.9,30.35,SW,233,1.0,7.0,66,0.00,,,0.00,Wunderground v.1.15,2013-03-28 01:52:00,
2013-03-27 21:58:00,35.0,24.8,30.35,SW,233,1.0,7.0,66,0.00,,,0.00,Wunderground v.1.15,2013-03-28 01:58:00,
2013-03-27 22:04:00,35.1,24.9,30.36,SW,232,2.0,7.0,66,0.00,,,0.00,Wunderground v.1.15,2013-03-28 02:04:00,
2013-03-27 22:10:00,34.9,24.7,30.36,SW,232,1.0,7.0,66,0.00,,,0.00,Wunderground v.1.15,2013-03-28 02:10:00,
2013-03-27 22:16:00,34.7,24.5,30.36,SW,233,1.0,7.0,66,0.00,,,0.00,Wunderground v.1.15,2013-03-28 02:16:00,
2013-03-27 22:22:00,34.6,24.4,30.36,SW,232,2.0,7.0,66,0.00,,,0.00,Wunderground v.1.15,2013-03-28 02:22:00,
2013-03-27 22:28:00,34.7,24.1,30.36,SW,229,2.0,7.0,65,0.00,,,0.00,Wunderground v.1.15,2013-03-28 02:28:00,
2013-03-27 22:34:00,34.4,23.8,30.36,SW,226,2.0,7.0,65,0.00,,,0.00,Wunderground v.1.15,2013-03-28 02:34:00,
2013-03-27 22:40:00,33.8,24.4,30.36,SW,224,1.0,1.0,68,0.00,,,0.00,Wunderground v.1.15,2013-03-28 02:40:00,
2013-03-27 22:46:00,33.4,23.6,30.36,SW,224,0.0,7.0,67,0.00,,,0.00,Wunderground v.1.15,2013-03-28 02:46:00,
2013-03-27 22:52:00,33.5,23.4,30.36,SW,224,0.0,7.0,66,0.00,,,0.00,Wunderground v.1.15,2013-03-28 02:52:00,
2013-03-27 22:58:00,33.4,23.6,30.36,SW,224,0.0,7.0,67,0.00,,,0.00,Wunderground v.1.15,2013-03-28 02:58:00,
2013-03-27 23:04:00,33.0,23.2,30.36,SW,224,0.0,7.0,67,0.00,,,0.00,Wunderground v.1.15,2013-03-28 03:04:00,
2013-03-27 23:10:00,32.8,23.4,30.36,SW,224,0.0,7.0,68,0.00,,,0.00,Wunderground v.1.15,2013-03-28 03:10:00,
2013-03-27 23:18:00,32.9,23.5,30.36,SW,224,1.0,7.0,68,0.00,,,0.00,Wunderground v.1.15,2013-03-28 03:18:00,
2013-03-27 23:24:00,32.4,23.7,30.36,SW,229,1.0,7.0,70,0.00,,,0.00,Wunderground v.1.15,2013-03-28 03:24:00,
2013-03-27 23:30:00,32.1,24.1,30.36,SW,228,1.0,7.0,72,0.00,,,0.00,Wunderground v.1.15,2013-03-28 03:30:00,
2013-03-27 23:36:00,32.0,23.3,30.36,SW,228,1.0,7.0,70,0.00,,,0.00,Wunderground v.1.15,2013-03-28 03:36:00,
2013-03-27 23:42:00,32.1,23.8,30.36,SW,226,1.0,7.0,71,0.00,,,0.00,Wunderground v.1.15,2013-03-28 03:42:00,
2013-03-27 23:48:00,32.1,23.1,30.36,SW,226,1.0,7.0,69,0.00,,,0.00,Wunderground v.1.15,2013-03-28 03:48:00,
2013-03-27 23:54:00,32.4,23.0,30.36,SW,226,0.0,7.0,68,0.00,,,0.00,Wunderground v.1.15,2013-03-28 03:54:00,